Regional Weather Roundup
Issued by NWS

Home | Current Version | Previous Version | Graphics & Text | Print | Product List | Glossary On
Versions: 1 2 3 4 5 6 7 8 9 10 11 12 13 14 15 16 17 18 19 20 21 22 23 24 25 26 27 28 29 30 31 32 33 34 35 36 37 38 39 40 41 42 43 44 45 46 47 48 49
000
ASUS43 KDMX 291707
RWRIA

WEATHER ROUNDUP FOR IOWA
NATIONAL WEATHER SERVICE DES MOINES IA
1200 PM CDT WED JUL 29 2015

NOTE: "FAIR" INDICATES FEW OR NO CLOUDS BELOW 12,000 FEET WITH NO
SIGNIFICANT WEATHER AND/OR OBSTRUCTIONS TO VISIBILITY.

* - THESE STATIONS ARE NOT NWS STATIONS...THUS NOT UNDER NWS
QUALITY CONTROL.  THEY ALSO DO NOT REPORT WEATHER SUCH
AS PRECIPITATION OR FOG.

IAZ001>003-012>014-020>022-031>034-043>046-291800-
   NORTHWEST IOWA

CITY           SKY/WX    TMP DP  RH WIND       PRES   REMARKS
CARROLL *      SUNNY     79  59  50 W12G18    30.15S HX  80
CHEROKEE *     SUNNY     77  57  50 W14G21    30.16S
DENISON *      SUNNY     77  59  53 W10       30.16S
LE MARS *      SUNNY     77  57  50 W14       30.17F
ORANGE CITY *  SUNNY     75  57  53 W10       30.16S
SHELDON *      SUNNY     77  57  50 W16       30.13S
SIOUX CITY     SUNNY     80  55  42 W17G23    30.18S HX  80
SPENCER        SUNNY     80  54  40 W17G25    30.13S HX  80
STORM LAKE *   SUNNY     75  57  53 W14G23    30.17S
$$

IAZ055>058-069>071-079>083-090>094-291800-
   SOUTHWEST IOWA

CITY           SKY/WX    TMP DP  RH WIND       PRES   REMARKS
ATLANTIC *     SUNNY     79  55  44 NW9       30.17S
AUDUBON *      SUNNY     79  61  53 W5        30.18S HX  80
CLARINDA *     SUNNY     77  61  57 N10G16    30.18R
COUNCIL BLFS * SUNNY     79  54  41 N9        30.18F
CRESTON *      SUNNY     79  57  47 N14G21    30.16S HX  80
HARLAN  *      SUNNY     79  55  44 NW10      30.21F
LAMONI           N/A    N/A N/A N/A MISG      30.14S
RED OAK *      SUNNY     79  61  53 NW9       30.16F HX  80
SHENANDOAH *   SUNNY     79  64  61 N6        30.17S HX  81
$$

IAZ047>049-059>061-072>074-084-291800-
   CENTRAL IOWA

CITY           SKY/WX    TMP DP  RH WIND       PRES   REMARKS
AMES           MOSUNNY   79  60  52 W12G21    30.12R HX  80
ANKENY *       SUNNY     81  55  41 NW16G22   30.12R HX  80
CHARITON *     SUNNY     81  59  47 NW10      30.14R HX  81
DES MOINES     PTSUNNY   83  49  30 NW18G24   30.11S HX  81
GRINNELL*      MOSUNNY   77  57  50 W13G20    30.11S
KNOXVILLE *    SUNNY     79  57  47 NW8G16    30.11R HX  80
MARSHALLTOWN     N/A    N/A N/A N/A MISG      30.10R
PELLA *        MOSUNNY   79  61  53 NW9G17    30.12S HX  80
PERRY *          N/A     77  61  57 W13       30.14F
$$

IAZ004>006-015-016-023>025-035-036-291800-
   NORTH CENTRAL IOWA

CITY           SKY/WX    TMP DP  RH WIND       PRES   REMARKS
ALGONA *       SUNNY     79  57  47 W18       30.11S HX  80
CLARION *      SUNNY     77  55  47 W18G26    30.11R
ESTHERVILLE    SUNNY     77  55  46 W17G31    30.10S
FORT DODGE *   SUNNY     79  57  47 W12G18    30.13S HX  80
MASON CITY     SUNNY     80  56  43 W20G28    30.08S HX  80
FOREST CITY *  SUNNY     77  54  44 W14G24    30.08S
IOWA FALLS *     N/A     79  55  44 W17       30.11S
$$

IAZ007>011-017>019-026>030-037>042-050>054-066-291800-
   NORTHEAST IOWA

CITY           SKY/WX    TMP DP  RH WIND       PRES   REMARKS
CEDAR RAPIDS   SUNNY     79  57  46 NW15G24   30.08R HX  80
CHARLES CITY * SUNNY     77  55  47 W22G29    30.06S
CLINTON *      MOSUNNY   79  57  47 NW8G17    30.08S HX  80
DECORAH *      SUNNY     77  52  41 NW14G24   30.03S
DUBUQUE        SUNNY     80  51  36 NW18G25   30.06R HX  80
MONTICELLO *   SUNNY     81  57  44 W10G17    30.06S HX  81
OELWEIN *      SUNNY     77  55  47 W13G26    30.07S
WATERLOO       SUNNY     80  57  45 W13       30.06S HX  80
$$

IAZ064-065-067-068-078-291800-
   EAST CENTRAL IOWA

CITY           SKY/WX    TMP DP  RH WIND       PRES   REMARKS
DAVENPORT      SUNNY     81  58  45 NW7       30.07R HX  81
IOWA CITY      SUNNY     81  53  37 NW15G21   30.09R HX  80
MT. PLEASANT * MOSUNNY   82  52  34 N8        30.10S HX  81
MUSCATINE *    SUNNY     82  55  39 NW8       30.08S HX  82
QUAD CITIES    SUNNY     84  57  39 NW12      30.06R HX  83
$$

IAZ062-063-075>077-085>089-095>099-291800-
   SOUTHEAST IOWA

CITY           SKY/WX    TMP DP  RH WIND       PRES   REMARKS
BURLINGTON     MOSUNNY   82  63  52 N10       30.09R HX  83
FAIRFIELD *    SUNNY     79  57  47 N9G15     30.11S HX  80
FORT MADISON * SUNNY     81  66  61 N9        30.10S HX  83
KEOKUK *       SUNNY     82  66  57 N9        30.09S HX  85
OSKALOOSA *      N/A     79  59  50 NW8       30.12S HX  80
CENTERVILLE *  SUNNY     77  64  65 N6        30.14F
OTTUMWA          N/A    N/A N/A N/A MISG      30.10S
WASHINGTON *   MOSUNNY   81  59  47 NW9G15    30.11S HX  81
$$

ABBREVIATIONS USED IN REMARKS
   TC - TEMPERATURES IN CELSIUS
  WCI - WIND CHILL INDEX
   HX - HEAT INDEX
  VSB - VISIBILITY
$$



USA.gov is the U.S. government's official web portal to all federal, state and local government web resources and services.